Weather History for Harlan, KY

Change the Weather History Date:

Friday, May 24, 2013

  Actual Average (KLOZ) Record (KLOZ)
Temperature  
Mean Temperature 55 °F 67 °F  
Max Temperature 64 °F 78 °F 89 °F (1958)
Min Temperature 44 °F 56 °F 36 °F (1961)
Degree Days  
Heating Degree Days 10 2  
Month to date heating degree days 84  
Since 1 July heating degree days 4185  
Cooling Degree Days 0 4  
Month to date cooling degree days 57  
Year to date cooling degree days 83  
Growing Degree Days 5 (Base 50)    
Moisture  
Dew Point 44 °F    
Average Humidity 68    
Maximum Humidity 94    
Minimum Humidity 34    
Precipitation  
Precipitation 0.00 in 0.17 in 1.26 in (1978)
Month to date precipitation 3.98  
Year to date precipitation 19.33  
Sea Level Pressure  
Sea Level Pressure 30.20 in    
Wind  
Wind Speed 5 mph (NNW)    
Max Wind Speed 17 mph    
Max Gust Speed 24 mph    
Visibility 9 miles    
Events      
T = Trace of Precipitation, MM = Missing Value Source: NWS Daily Summary

Daily Weather History Graph

Daily Weather History Graph

Search for Another Location

Airport:

Trip Planner

Search our weather history database for the weather conditions in past years. The results will help you decide how hot, cold, wet, or windy it might be!

Date:

Astronomy

May. 24, 2013 Rise Set
Actual Time 6:19 AM EDT 8:41 PM EDT
Civil Twilight 5:49 AM EDT 9:11 PM EDT
Nautical Twilight 5:13 AM EDT 9:48 PM EDT
Astronomical Twilight 4:33 AM EDT 10:28 PM EDT
Moon 8:23 PM EDT (5/24) 5:49 AM EDT (5/24)
Length of Visible Light 15h 21m
Length of Day
14h 22m
Full, 100% of the Moon is Illuminated
May 24
Full
May 25
Full
May 31
Last Quarter
Jun 8
New
Jun 16
First Quarter

Hourly Weather History & Observations

Time (EDT) Temp. Dew Point Humidity Pressure Visibility Wind Dir Wind Speed Gust Speed Precip Events Conditions
12:15 AM 59.0 °F 53.6 °F 82% 30.03 in 10.0 mi Calm Calm - N/A   Overcast
12:35 AM 59.0 °F 53.6 °F 82% 30.03 in 10.0 mi Calm Calm - N/A   Overcast
12:55 AM 59.0 °F 53.6 °F 82% 30.02 in 10.0 mi Calm Calm - N/A   Overcast
1:15 AM 59.0 °F 53.6 °F 82% 30.03 in 10.0 mi Calm Calm - N/A   Overcast
1:35 AM 57.2 °F 53.6 °F 88% 30.03 in 7.0 mi Calm Calm - N/A   Overcast
1:55 AM 57.2 °F 53.6 °F 88% 30.03 in 7.0 mi WNW 5.8 mph - N/A   Overcast
2:15 AM 55.4 °F 53.6 °F 94% 30.03 in 5.0 mi NNW 4.6 mph - N/A   Overcast
2:35 AM 55.4 °F 53.6 °F 94% 30.03 in 7.0 mi West 4.6 mph - N/A   Overcast
2:55 AM 55.4 °F 53.6 °F 94% 30.03 in 5.0 mi WNW 4.6 mph - N/A   Overcast
3:15 AM 55.4 °F 53.6 °F 94% 30.04 in 4.0 mi NW 5.8 mph - N/A   Overcast
3:35 AM 55.4 °F 53.6 °F 94% 30.03 in 7.0 mi NW 4.6 mph - N/A   Overcast
3:55 AM 55.4 °F 51.8 °F 88% 30.05 in 10.0 mi NNW 11.5 mph 20.7 mph N/A   Overcast
4:15 AM 55.4 °F 51.8 °F 88% 30.06 in 10.0 mi NW 12.7 mph 18.4 mph N/A   Overcast
4:35 AM 53.6 °F 50.0 °F 88% 30.06 in 10.0 mi NNW 8.1 mph 21.9 mph N/A   Overcast
4:55 AM 53.6 °F 50.0 °F 88% 30.07 in 10.0 mi NNW 8.1 mph 18.4 mph N/A   Overcast
5:15 AM 53.6 °F 50.0 °F 88% 30.08 in 10.0 mi NW 10.4 mph 16.1 mph N/A   Overcast
5:35 AM 53.6 °F 50.0 °F 88% 30.09 in 7.0 mi North 10.4 mph 18.4 mph N/A   Overcast
5:55 AM 51.8 °F 48.2 °F 88% 30.10 in 10.0 mi North 9.2 mph 24.2 mph N/A   Overcast
6:15 AM 51.8 °F 48.2 °F 88% 30.12 in 10.0 mi NNE 10.4 mph 16.1 mph N/A   Overcast
6:35 AM 51.8 °F 46.4 °F 82% 30.13 in 10.0 mi North 9.2 mph 16.1 mph N/A   Overcast
6:55 AM 50.0 °F 48.2 °F 94% 30.14 in 4.0 mi Calm Calm - N/A   Overcast
7:15 AM 50.0 °F 46.4 °F 87% 30.15 in 4.0 mi NNW 5.8 mph - N/A   Overcast
7:35 AM 50.0 °F 44.6 °F 82% 30.16 in 10.0 mi NE 6.9 mph - N/A   Overcast
7:55 AM 50.0 °F 44.6 °F 82% 30.17 in 5.0 mi North 9.2 mph - N/A   Overcast
8:15 AM 50.0 °F 44.6 °F 82% 30.18 in 10.0 mi North 10.4 mph 16.1 mph N/A   Overcast
8:35 AM 50.0 °F 44.6 °F 82% 30.19 in 10.0 mi NNE 5.8 mph - N/A   Overcast
8:55 AM 50.0 °F 44.6 °F 82% 30.21 in 10.0 mi NNE 8.1 mph - N/A   Overcast
9:15 AM 50.0 °F 44.6 °F 82% 30.22 in 10.0 mi NW 6.9 mph - N/A   Overcast
9:35 AM 50.0 °F 44.6 °F 82% 30.23 in 10.0 mi NNW 10.4 mph 17.3 mph N/A   Overcast
9:55 AM 50.0 °F 44.6 °F 82% 30.23 in 10.0 mi NNE 5.8 mph 17.3 mph N/A   Overcast
10:15 AM 51.8 °F 44.6 °F 76% 30.24 in 10.0 mi NNE 6.9 mph - N/A   Overcast
10:35 AM 51.8 °F 44.6 °F 76% 30.25 in 10.0 mi WNW 8.1 mph - N/A   Overcast
10:55 AM 55.4 °F 42.8 °F 63% 30.25 in 10.0 mi NW 5.8 mph - N/A   Mostly Cloudy
11:15 AM 57.2 °F 44.6 °F 63% 30.25 in 10.0 mi Calm Calm - N/A   Mostly Cloudy
11:35 AM 57.2 °F 42.8 °F 59% 30.26 in 10.0 mi North 3.5 mph 18.4 mph N/A   Mostly Cloudy
11:55 AM 57.2 °F 42.8 °F 59% 30.26 in 10.0 mi NNE 9.2 mph 16.1 mph N/A   Mostly Cloudy
12:15 PM 59.0 °F 42.8 °F 55% 30.26 in 10.0 mi NNE 5.8 mph 21.9 mph N/A   Clear
12:35 PM 60.8 °F 42.8 °F 52% 30.26 in 10.0 mi NNE 9.2 mph 19.6 mph N/A   Scattered Clouds
12:55 PM 60.8 °F 42.8 °F 52% 30.26 in 10.0 mi NW 10.4 mph 17.3 mph N/A   Mostly Cloudy
1:15 PM 60.8 °F 41.0 °F 48% 30.26 in 10.0 mi NW 6.9 mph 16.1 mph N/A   Scattered Clouds
1:35 PM 62.6 °F 41.0 °F 45% 30.26 in 10.0 mi NNW 8.1 mph 16.1 mph N/A   Clear
1:55 PM 62.6 °F 41.0 °F 45% 30.26 in 10.0 mi NW 9.2 mph 18.4 mph N/A   Scattered Clouds
2:15 PM 62.6 °F 41.0 °F 45% 30.26 in 10.0 mi NW 8.1 mph 18.4 mph N/A   Scattered Clouds
2:35 PM 62.6 °F 41.0 °F 45% 30.26 in 10.0 mi NW 4.6 mph - N/A   Clear
2:55 PM 62.6 °F 39.2 °F 42% 30.25 in 10.0 mi WNW 6.9 mph - N/A   Scattered Clouds
3:15 PM 62.6 °F 37.4 °F 39% 30.25 in 10.0 mi North 4.6 mph 18.4 mph N/A   Clear
3:35 PM 62.6 °F 35.6 °F 37% 30.25 in 10.0 mi NW 6.9 mph 18.4 mph N/A   Clear
3:55 PM 64.4 °F 37.4 °F 37% 30.26 in 10.0 mi NW 4.6 mph 17.3 mph N/A   Clear
4:15 PM 64.4 °F 35.6 °F 34% 30.26 in 10.0 mi North 17.3 mph 23.0 mph N/A   Clear
4:35 PM 62.6 °F 35.6 °F 37% 30.25 in 10.0 mi NNE 10.4 mph 18.4 mph N/A   Clear
4:55 PM 64.4 °F 35.6 °F 34% 30.26 in 10.0 mi North 9.2 mph 17.3 mph N/A   Clear
5:15 PM 64.4 °F 37.4 °F 37% 30.26 in 10.0 mi WNW 8.1 mph 16.1 mph N/A   Clear
5:35 PM 62.6 °F 37.4 °F 39% 30.27 in 10.0 mi North 9.2 mph - N/A   Clear
5:55 PM 62.6 °F 35.6 °F 37% 30.26 in 10.0 mi Calm Calm - N/A   Clear
6:15 PM 62.6 °F 35.6 °F 37% 30.26 in 10.0 mi North 8.1 mph 16.1 mph N/A   Clear
6:35 PM 60.8 °F 35.6 °F 39% 30.26 in 10.0 mi NW 8.1 mph 16.1 mph N/A   Clear
6:55 PM 60.8 °F 35.6 °F 39% 30.26 in 10.0 mi NNW 10.4 mph 17.3 mph N/A   Clear
7:15 PM 60.8 °F 35.6 °F 39% 30.26 in 10.0 mi NNE 9.2 mph - N/A   Clear
7:35 PM 59.0 °F 37.4 °F 45% 30.26 in 10.0 mi NW 3.5 mph - N/A   Clear
7:55 PM 59.0 °F 37.4 °F 45% 30.27 in 10.0 mi NNW 4.6 mph - N/A   Clear
8:15 PM 59.0 °F 37.4 °F 45% 30.27 in 10.0 mi Calm Calm - N/A   Clear
8:35 PM 55.4 °F 41.0 °F 58% 30.27 in 10.0 mi Calm Calm - N/A   Clear
8:55 PM 53.6 °F 41.0 °F 62% 30.26 in 10.0 mi NNE 4.6 mph - N/A   Clear
9:15 PM 51.8 °F 42.8 °F 71% 30.27 in 10.0 mi NNE 10.4 mph - N/A   Clear
9:35 PM 51.8 °F 42.8 °F 71% 30.27 in 10.0 mi NNE 8.1 mph - N/A   Clear
9:55 PM 50.0 °F 41.0 °F 71% 30.28 in 10.0 mi NNE 10.4 mph - N/A   Clear
10:15 PM 50.0 °F 42.8 °F 76% 30.28 in 10.0 mi NNE 8.1 mph - N/A   Clear
10:35 PM 50.0 °F 42.8 °F 76% 30.28 in 10.0 mi NNE 8.1 mph - N/A   Clear
10:55 PM 46.4 °F 42.8 °F 87% 30.29 in 10.0 mi Calm Calm - N/A   Clear
11:15 PM 46.4 °F 42.8 °F 87% 30.30 in 10.0 mi Calm Calm - N/A   Clear
11:35 PM 46.4 °F 42.8 °F 87% 30.30 in 10.0 mi Calm Calm - N/A   Clear
11:55 PM 44.6 °F 42.8 °F 93% 30.30 in 10.0 mi Calm Calm - N/A   Clear